Location: Hume Station
(36.7944°N, 118.9051°W)
Time: 05:53:17
(UTC+00:00)

Daily predictions for brighter satellites

Satellite Brightness Start Highest point End
(mag) Time Altitude Azimuth Time Altitude Azimuth Time Altitude Azimuth
SJ-6B 2.7 03:37:54 10° SSE 03:41:35 64° ENE 03:45:17 10° N
STARLINK-1072 3.6 03:37:29 10° NW 03:41:38 88° SW 03:45:46 10° SE
MONITOR-E 3.7 03:40:41 10° SSE 03:43:11 62° ENE 03:45:42 10° N
Cosmos 1782 Rocket 4.3 03:41:58 10° NNW 03:46:21 58° W 03:50:42 10° S
STARLINK-1096 3.7 03:42:25 10° NW 03:46:34 79° SW 03:50:41 10° SE
MOS 1 4.3 03:41:38 10° SSE 03:47:19 85° ENE 03:53:02 10° NNW
Lacrosse 5 2.1 03:42:33 10° NW 03:47:35 68° SW 03:52:35 10° SSE
Aureole 2 Rocket 2.0 03:45:30 10° SSW 03:48:35 84° ESE 03:51:34 10° NNE
Meteor 2-9 Rocket 4.5 03:46:16 10° NNW 03:51:33 69° W 03:56:49 10° S
STARLINK-1079 3.8 03:47:27 10° NW 03:51:35 71° SW 03:55:41 10° SE
SL-08 RB Rocket 3.7 03:47:47 10° SSE 03:52:21 90° ESE 03:56:55 10° NNW
USA 267 3.9 03:47:11 10° SSE 03:53:29 50° SW 03:59:50 10° NW
Cosmos 1544 4.2 03:50:39 10° NNW 03:54:05 44° W 03:57:30 10° SSW
STARLINK-1116 3.9 03:52:25 10° NW 03:56:31 64° SW 04:00:31 11° SE
STARLINK-52 3.3 03:54:18 10° SSW 03:57:20 42° SE 04:00:24 10° ENE
NOSS 2-2 (C) 3.2 03:54:48 10° SW 03:58:22 78° WNW 04:02:04 10° NNE
ATLAS 2AS CENTAUR R/B 3.8 03:57:11 10° SSE 04:03:36 29° ESE 04:10:08 10° NE
MetOp-A 4.1 03:58:43 10° SSE 04:04:02 78° ENE 04:09:25 10° N
Cosmos 1634 Rocket 4.2 03:58:16 10° N 04:04:37 79° W 04:10:55 10° S
STARLINK-1094 4.2 04:02:25 10° WNW 04:06:26 51° SW 04:10:04 12° SSE
CZ-2C R/B 3.8 04:04:15 10° N 04:08:48 82° WNW 04:13:25 10° SSW
STARLINK-1117 4.4 04:07:27 10° WNW 04:11:25 45° SW 04:14:52 13° SSE
GPS 2-04 Rocket1 3.0 04:08:50 10° W 04:12:04 40° SSW 04:14:20 17° SE
Ariane Rocket 4.3 04:09:04 10° SSW 04:13:47 39° W 04:18:33 10° NNW
FALCON 9 DEB 3.6 04:10:57 10° SSW 04:14:08 38° SE 04:17:20 10° ENE
COSMOS 2455 4.5 04:13:27 12° ESE 04:14:19 13° ESE 04:16:48 10° ENE
SL-4 R/B 2.7 04:11:25 10° WSW 04:15:59 68° NW 04:20:47 10° NE
Okean 1 Rocket 4.0 04:12:11 10° NNE 04:16:09 31° ENE 04:18:47 17° SE
Cosmos 1741 Rocket 4.0 04:12:35 10° NNW 04:17:50 85° ENE 04:22:35 13° SSE
Cosmos 1110 Rocket 4.0 04:13:06 10° SSW 04:18:17 90° ESE 04:23:29 10° NNE
STARLINK-1073 4.5 04:14:46 10° NW 04:18:42 41° NE 04:21:44 15° ESE
STARLINK-1121 4.3 04:19:41 10° NW 04:23:40 44° NE 04:26:30 18° ESE
Cosmos 1850 Rocket 4.1 04:19:16 10° NNW 04:24:37 80° WSW 04:29:28 13° SSE
Cosmos 1437 Rocket 3.4 04:23:20 10° SSW 04:27:03 54° W 04:30:48 10° N
Okean 2 Rocket 3.9 04:24:02 10° NNW 04:28:18 50° W 04:32:31 10° SSW
STARLINK-1106 4.2 04:24:39 10° NW 04:28:41 49° NE 04:31:18 20° ESE
ATLAS CENTAUR R/B 2.7 04:28:15 21° SE 04:29:23 23° ESE 04:32:46 10° ENE
Abrixas rocket 1.8 04:27:25 10° NW 04:30:22 80° NE 04:31:38 31° ESE
Cosmos 1331 Rocket 4.1 04:25:38 10° SSW 04:30:46 78° WNW 04:35:58 10° NNE
ASTRO E2 3.9 04:28:54 10° WSW 04:32:18 27° SSW 04:33:40 22° SSE
STARLINK-1112 4.0 04:29:36 10° NW 04:33:41 54° NE 04:36:05 22° ESE
Terra 4.0 04:34:00 10° E 04:35:44 12° ENE 04:37:28 10° NE
Resurs 01 Rocket 1.6 04:32:17 16° SSE 04:35:47 88° ENE 04:40:14 10° NNW
USA 245 3.9 04:36:23 20° ENE 04:36:23 20° ENE 04:38:21 10° NNE
deb Kosmos-1763 4.0 04:34:58 10° NNW 04:38:34 80° WSW 04:40:33 25° S
STARLINK-1128 3.9 04:34:33 10° NW 04:38:39 59° NE 04:40:51 25° ESE
CZ-2C R/B 3.8 04:34:14 10° N 04:39:34 46° WNW 04:44:51 10° SW
BREEZE-M DEB (TANK) 2.4 04:39:51 10° SW 04:42:13 65° SE 04:47:36 10° NE
STARLINK-1365 4.3 04:39:00 10° S 04:42:31 30° SE 04:46:03 10° ENE
SPOT 3 Rocket 4.2 04:37:36 10° S 04:42:35 51° W 04:47:37 10° NNW
STARLINK-1113 3.8 04:39:32 10° NW 04:43:39 66° NE 04:45:39 29° ESE
Cosmos 2151 Rocket 4.4 04:39:46 10° NNW 04:44:09 50° W 04:48:26 10° SSW
Cosmos 1302 Rocket 3.9 04:39:13 10° S 04:44:27 71° ESE 04:49:44 10° NNE
Cosmos 1943 Rocket 2.1 04:40:07 10° SSW 04:45:38 87° WNW 04:51:16 10° NNE
SPOT 1/Viking Rocket 4.3 04:44:13 24° ESE 04:46:42 38° ENE 04:51:25 10° N
STARLINK-1119 3.6 04:44:30 10° NW 04:48:38 73° NE 04:50:25 32° ESE
Cosmos 1766 3.9 04:47:45 10° N 04:51:31 39° E 04:52:31 33° ESE
STARLINK-1114 3.6 04:49:29 10° NW 04:53:37 81° NE 04:55:13 36° SE
Cosmos 1378 Rocket 4.3 04:51:49 10° SSW 04:56:06 51° W 05:00:23 10° N
STARLINK-1338 3.9 04:57:51 39° ESE 04:57:51 39° ESE 05:01:07 10° ENE
STARLINK-1130 (DARKSAT) 3.5 04:54:26 10° NW 04:58:35 89° ENE 04:59:59 40° SE
CENTAUR R/B 3.9 04:53:19 10° NNW 05:01:01 43° NE 05:06:36 21° ESE
Milstar 3 Cent rocket 3.9 04:55:54 10° SW 05:03:11 45° SSE 05:17:59 10° E
STARLINK-1084 3.5 04:59:25 10° NW 05:03:34 82° SW 05:04:47 45° SE
STARLINK-1371 3.6 05:05:40 49° SE 05:05:40 49° SE 05:09:22 10° ENE
Nadezhda 4 Rocket 4.2 04:59:49 10° SSW 05:05:55 68° W 05:12:01 10° N
Cosmos 1656 Rocket 3.9 05:04:05 30° SSE 05:06:24 46° ESE 05:11:43 10° NE
ATLAS 3B R/B 4.4 05:03:09 10° N 05:08:09 21° NE 05:13:00 11° E
STARLINK-1098 3.6 05:04:23 10° NW 05:08:32 74° SW 05:09:33 48° SSE
STARLINK-1341 3.5 05:09:38 54° SE 05:09:41 54° SE 05:13:31 10° NE
Cosmos 292 Rocket 3.7 05:09:17 24° S 05:12:13 80° ESE 05:17:06 10° NNE
STARLINK-1123 3.7 05:09:23 10° NW 05:13:30 66° SW 05:14:20 51° S
SL-8 R/B 3.6 05:08:45 10° NW 05:13:33 84° SW 05:15:03 44° SE
STARLINK-1374 3.4 05:13:39 59° SE 05:13:47 59° SE 05:17:39 10° NE
Cosmos 1378 4.1 05:12:05 19° SW 05:14:23 45° W 05:17:57 10° N
Cosmos 2082 Rocket 4.3 05:13:05 10° NW 05:17:05 20° W 05:21:04 10° SW
STARLINK-1339 3.3 05:17:36 62° SSE 05:17:56 66° SE 05:21:50 10° NE
STARLINK-1097 3.8 05:14:23 10° NW 05:18:28 59° SW 05:19:07 51° S
Cosmos 2369 Rocket 2.5 05:12:56 10° SSW 05:18:34 66° WNW 05:24:12 10° NNE
ERS-1 Rocket 3.1 05:19:12 41° SE 05:20:39 57° ENE 05:25:35 10° N
Cosmos 1975 Rocket 3.0 05:19:48 39° S 05:21:24 86° W 05:25:49 10° N
Cosmos 1025 Rocket 4.3 05:22:04 26° ENE 05:22:04 26° ENE 05:25:09 10° NNE
OAO 1 4.4 05:16:28 10° W 05:21:58 73° S 05:24:01 39° ESE
STARLINK-1377 3.3 05:21:34 61° S 05:22:05 73° SE 05:26:01 10° NE
NOSS 3-2 (C) 4.3 05:14:29 10° NNW 05:22:09 60° NE 05:26:32 30° ESE
STARLINK-1099 3.9 05:19:23 10° NW 05:23:25 53° SW 05:23:53 49° SSW
Cosmos 1805 3.5 05:20:45 10° NNW 05:24:38 62° W 05:25:31 47° SSW
STARLINK-1353 3.3 05:25:29 55° SSW 05:26:16 80° SE 05:30:12 10° NE
NOSS 3-4 (A) 3.3 05:20:23 10° SSW 05:26:16 89° NW 05:32:28 10° NNE
NOSS 3-4 (C) 3.3 05:20:29 10° SSW 05:26:22 90° E 05:32:33 10° NNE
Landsat 7 4.0 05:25:57 39° S 05:27:39 68° W 05:32:24 10° NNW
STARLINK-1104 4.0 05:24:25 10° WNW 05:28:23 47° SW 05:28:41 46° SSW
Cosmos 1470 3.9 05:26:39 10° NNE 05:29:36 30° ENE 05:29:36 30° ENE
STARLINK-1375 3.3 05:29:31 51° SW 05:30:28 87° SE 05:34:24 10° NE
STARLINK-1144 4.2 05:29:25 10° WNW 05:33:20 42° SW 05:33:28 42° SW
STARLINK-1350 3.4 05:33:29 44° SW 05:34:38 85° NW 05:38:35 10° NE
Cosmos 1842 3.6 05:36:05 50° SW 05:36:47 60° W 05:40:37 10° N
Cosmos 1867 4.4 05:31:42 10° NNW 05:36:47 38° NE 05:38:17 32° E
Cosmos 968 Rocket 3.7 05:32:00 10° N 05:37:01 53° ENE 05:37:51 47° ESE
Cosmos 1733 3.3 05:34:08 10° NNW 05:37:53 65° W 05:38:02 64° WSW
STARLINK-1103 4.5 05:34:27 10° WNW 05:38:14 38° SW 05:38:14 38° SW
STARLINK-1352 3.5 05:37:30 38° WSW 05:38:54 78° NW 05:42:51 10° NE
RESURS DK-1 4.4 05:44:17 17° ENE 05:44:17 17° ENE 05:45:33 10° NE
STARLINK-1368 3.6 05:41:33 33° WSW 05:43:11 71° NW 05:47:07 10° NE
STARLINK-1369 3.8 05:45:36 29° WSW 05:47:27 64° NW 05:51:23 10° NE
BREEZE-M DEB (TANK) 3.2 05:36:43 10° SW 05:49:27 73° SE 05:53:21 10° ENE
Cosmos 1271 Rocket 2.9 05:51:50 68° N 05:51:50 68° N 05:55:19 10° N
Cosmos 1953 4.1 05:48:08 10° NNE 05:50:26 22° NE 05:50:26 22° NE
STARLINK-1372 4.0 05:49:38 25° WSW 05:51:46 59° NW 05:55:39 10° NE
ATLAS 2AS CENTAUR R/B 3.5 05:46:17 10° SW 05:54:06 62° NW 06:02:02 10° NNE
ATLAS 3B CENTAUR R/B 3.5 05:39:50 10° W 05:54:28 48° SSW 05:56:32 42° SSE
Cosmos 1455 Rocket 3.1 05:50:53 10° NNW 05:55:11 70° W 05:55:19 69° WSW
STARLINK-1378 4.2 05:53:38 21° WSW 05:56:03 53° NW 05:59:55 10° NE
SL-27 R/B 3.8 05:55:14 10° NW 05:57:55 34° WNW 05:57:55 34° WNW
COSMOS 2455 2.8 05:56:28 32° SSW 05:59:25 82° WNW 06:05:28 10° NNE
CARTOSAT-1 4.0 06:00:05 52° WSW 06:00:17 53° W 06:04:31 10° NNW
STARLINK-1379 4.3 05:57:43 18° WSW 06:00:24 49° NW 06:04:15 10° NE
NOSS 3-2 (A) 4.4 05:52:45 10° NW 06:00:27 59° WSW 06:03:41 38° S
COSMOS 2487 4.5 05:59:28 10° N 06:01:15 22° NNE 06:01:15 22° NNE
Cosmos 1707 3.4 06:03:58 52° N 06:03:58 52° N 06:06:57 10° N
STARLINK-1329 4.5 06:00:55 16° WSW 06:03:51 46° NW 06:07:40 10° NE
Thor Agena Rocket 4.3 05:59:31 10° NNE 06:03:47 39° E 06:03:47 39° E
SPOT 5 3.3 06:04:50 51° SW 06:05:47 60° W 06:11:06 10° NNW
Cosmos 1417 Rocket 4.5 06:00:43 10° N 06:07:05 73° E 06:08:15 59° SE
ATLAS CENTAUR R/B 3.1 06:04:12 10° WSW 06:08:08 32° NW 06:11:56 10° N
Cosmos 1758 3.8 06:05:52 10° N 06:09:14 59° N 06:09:14 59° N
Cosmos 1242 Rocket 4.4 06:12:37 26° W 06:12:49 26° WNW 06:15:59 10° NNW
Terra 1.9 06:12:47 68° WSW 06:12:52 68° WSW 06:17:36 10° NNW
USA 238 DEB 4.5 06:07:59 10° NW 06:14:51 45° WSW 06:16:56 37° SSW
USA 238 4.5 06:08:04 10° NW 06:14:58 46° WSW 06:17:02 37° SSW
Meteor 2-10 4.1 06:11:47 10° N 06:16:35 62° ENE 06:16:35 62° ENE
Cosmos 1503 Rocket 3.9 06:12:59 10° NNW 06:18:21 88° WSW 06:18:32 84° S
Cosmos 1536 Rocket 4.0 06:21:52 60° NW 06:21:52 60° NW 06:25:44 10° N
Cosmos 2084 4.1 06:28:27 55° NW 06:28:27 55° NW 06:32:38 10° NNE
SeaSat 1 3.5 06:26:50 10° NE 06:29:54 33° ENE 06:29:54 33° ENE
Cosmos 2297 Rocket 4.4 06:30:10 10° NNE 06:33:14 15° NE 06:35:10 13° ENE
S3M 3.9 06:33:01 10° N 06:39:14 78° W 06:39:53 70° SSW
Cosmos 1354 Rocket 4.2 06:35:08 10° NNW 06:40:09 62° W 06:40:09 62° W
Cosmos 2315 Rocket 4.2 06:36:38 10° N 06:42:41 53° E 06:42:54 52° E
BREEZE-M DEB (TANK) 3.8 06:38:27 10° NW 06:47:29 60° NNE 06:47:33 60° NNE
CENTAUR R/B 3.6 06:43:58 10° NW 06:52:01 50° WSW 06:53:47 45° SSW
Meteor 2-15 Rocket 4.4 06:48:50 10° N 06:54:56 67° E 06:54:59 67° E
Spot 4 4.3 06:57:59 60° N 06:57:59 60° N 07:01:58 10° N
Meteor 1-16 Rocket 4.2 06:53:01 10° NNW 06:57:56 69° NW 06:57:56 69° NW
ALOS 2 4.0 07:00:41 32° NE 07:00:41 32° NE 07:03:35 10° N
ATLAS 3B R/B 2.5 06:52:44 10° NNW 06:59:37 85° WSW 07:00:14 76° S
Cosmos 1726 4.4 07:02:31 10° NNW 07:04:12 23° NW 07:04:12 23° NW
Cosmos 2266 Rocket 4.4 07:06:50 48° WSW 07:07:30 51° W 07:13:22 10° N
Cosmos 2098 Rocket 4.3 07:08:10 65° SW 07:09:16 78° W 07:16:46 10° N
Cosmos 2227 Rocket 3.8 07:06:40 10° N 07:11:18 25° ENE 07:12:15 24° ENE
Exosat Rocket 4.3 07:08:59 10° NNW 07:16:46 60° WSW 07:16:59 60° WSW
Cosmos 921 Rocket 4.4 07:21:54 36° N 07:21:54 36° N 07:24:39 10° N
Meteor 2-5 Rocket 3.9 07:24:06 68° NW 07:24:06 68° NW 07:29:14 10° N
Meteor 2-21 4.4 07:27:49 85° N 07:27:49 85° N 07:33:50 10° N
Lacrosse 4 Rocket 4.0 07:25:54 10° NNE 07:28:00 13° NE 07:28:20 13° NE
Cosmos 1244 Rocket 4.4 07:30:39 84° N 07:30:39 84° N 07:36:38 10° N
Cosmos 1745 Rocket 4.5 07:34:54 47° ENE 07:34:54 47° ENE 07:40:19 10° NNE
CZ-4C R/B 2.6 07:45:19 50° NE 07:45:19 50° NE 07:49:32 10° NNE
SL-08 R/B 4.4 07:50:15 86° N 07:50:15 86° N 07:56:28 10° N
SJ 16-02 2.9 07:46:56 10° N 07:49:50 31° NNE 07:49:50 31° NNE
Cosmos 1980 Rocket 3.6 07:54:20 27° ENE 07:54:20 27° ENE 07:57:49 10° NE
Cosmos 2369 4.1 08:02:55 55° ENE 08:02:55 55° ENE 08:07:29 10° NNE
SeaSat 1 4.3 08:05:01 10° N 08:08:47 22° NW 08:09:40 21° WNW
Cosmos 1656 4.3 08:15:17 46° WNW 08:15:17 46° WNW 08:20:35 10° N
Cosmos 2297 Rocket 2.5 08:12:16 10° NNW 08:16:57 61° NW 08:16:57 61° NW
Cosmos 2219 3.8 08:15:13 10° NNW 08:19:29 47° WNW 08:19:29 47° WNW
Cosmos 1709 Rocket 4.1 08:23:15 65° E 08:23:15 65° E 08:29:13 10° NNE
Cosmos 1937 Rocket 4.1 08:20:59 10° N 08:25:47 53° NE 08:25:47 53° NE
USA 215 3.9 08:22:46 20° ESE 08:27:16 53° NE 08:33:36 10° NW
SL-16 R/B 4.5 08:24:35 13° ESE 08:28:08 22° ENE 08:32:38 10° NNE
BREEZE-M (TANK) 4.4 08:30:44 59° SSE 08:31:28 61° SE 08:54:06 10° NE
Cosmos 2322 Rocket 4.4 08:31:34 13° E 08:31:35 13° E 08:34:07 10° ENE
Cosmos 2082 3.9 08:26:14 10° NNW 08:31:40 65° NE 08:31:40 65° NE
Cosmos 1898 Rocket 3.9 08:28:37 10° NNW 08:32:57 60° NNW 08:32:57 60° NNW
Meteor 2-1 Rocket 4.3 08:29:19 10° N 08:34:15 70° NNW 08:34:15 70° NNW
Cosmos 2278 3.7 08:39:07 75° NNE 08:39:07 75° NNE 08:44:18 10° NNE
Cosmos 1697 Rocket 3.1 08:39:13 55° WNW 08:39:13 55° WNW 08:44:36 10° NNE
Nadezhda 1 Rocket 4.2 08:38:05 10° NNW 08:43:59 56° W 08:43:59 56° W
Cosmos 1814 Rocket 4.2 08:47:07 69° NNE 08:47:07 69° NNE 08:51:47 10° NNE
Cosmos 2285 Rocket 4.1 08:41:26 10° NNW 08:47:46 70° ENE 08:48:31 63° ESE
Helios 1B rocket 4.1 08:44:43 10° N 08:47:12 31° NNW 08:47:12 31° NNW
Resurs 1-4 Rocket 3.2 08:49:17 10° NNE 08:54:04 33° E 08:54:07 33° E
Cosmos 2227 Rocket 3.2 08:50:10 10° NW 08:54:03 36° WNW 08:54:03 36° WNW
Cosmos 841 Rocket 3.9 08:58:06 57° NW 08:58:06 57° NW 09:02:44 10° N
IRAS Rocket 4.3 08:57:50 66° E 08:58:11 68° ENE 09:03:41 10° N
SL-16 R/B 3.2 09:05:59 35° ESE 09:06:12 35° ESE 09:11:17 10° NE
Lacrosse 4 Rocket 3.4 09:02:54 10° NW 09:04:36 23° NW 09:04:36 23° NW
Cosmos 2074 Rocket 4.3 09:09:07 52° SE 09:10:09 59° E 09:16:19 10° NNE
Cosmos 1455 4.4 09:09:42 10° NNW 09:11:05 20° NNW 09:11:05 20° NNW
FALCON 9 R/B 3.1 09:20:20 49° WSW 09:22:13 64° S 09:41:39 10° ESE
STARLINK-1299 4.5 09:23:49 50° NE 09:23:49 50° NE 09:27:01 10° NE
CZ-2D R/B 2.2 09:17:44 10° NNE 09:22:55 62° ESE 09:23:08 61° ESE
DELTA 2 DEB (DPAF) 4.4 09:23:37 64° N 09:23:37 64° N 09:27:27 10° N
STARLINK-1302 4.4 09:29:30 49° NE 09:29:30 49° NE 09:32:35 10° NE
SJ 16-02 4.0 09:26:41 10° WNW 09:26:48 10° WNW 09:26:48 10° WNW
Cosmos 2360 Rocket 3.8 09:28:00 20° ESE 09:29:28 22° E 09:33:43 10° NE
STARLINK-1273 4.3 09:34:17 54° NE 09:34:17 54° NE 09:37:33 10° NE
CZ-4C R/B 4.4 09:30:28 10° WNW 09:33:26 15° NW 09:36:49 10° N
Cosmos 2184 Rocket 3.8 09:33:27 64° S 09:34:31 90° E 09:40:42 10° N
Cosmos 1980 Rocket 3.1 09:36:05 33° WNW 09:36:51 34° WNW 09:41:58 10° N
STARLINK-1288 4.1 09:39:04 57° NNE 09:39:04 57° NNE 09:42:31 10° NE
MOZ.5/SAFIR/RUBIN 5/SL-8 3.7 09:41:21 71° NW 09:41:21 71° NW 09:45:37 10° NNW
STARLINK-1308 4.1 09:43:53 58° N 09:43:53 58° N 09:47:31 10° NE
Meteor 1-11 4.4 09:43:19 51° W 09:43:41 52° WNW 09:49:09 10° N
STARLINK-61 4.1 09:47:33 56° NE 09:47:33 56° NE 09:50:42 10° NE
BREEZE M DEB (TANK) 3.2 09:46:53 60° NNE 09:47:09 63° NE 09:53:45 10° ESE
Timation 1 Rocket 4.2 09:41:23 10° NNW 09:47:22 82° WSW 09:48:53 53° S
Cosmos 1400 Rocket 3.9 09:46:00 10° NNW 09:48:51 38° NW 09:48:51 38° NW
STARLINK-1304 4.1 09:53:25 53° NW 09:53:25 53° NW 09:57:24 10° NE
STARLINK-1278 4.4 09:54:58 44° NW 09:55:13 45° NW 09:59:19 10° NE
STARLINK-1280 4.4 09:56:44 43° NW 09:57:04 44° NW 10:01:09 10° NE
NOSS 2-1 (E) 4.0 09:59:04 40° NNW 09:59:04 40° NNW 10:01:46 10° NNE
Cosmos 2263 Rocket 2.2 09:53:19 10° NNW 09:58:56 80° ENE 10:01:31 33° SSE
STARLINK-54 4.3 10:01:56 39° E 10:01:56 39° E 10:04:36 10° ENE
STARLINK-77 4.4 10:03:22 37° E 10:03:22 37° E 10:06:02 10° ENE
CZ-4B R/B 3.5 09:58:48 10° N 10:04:04 75° WNW 10:05:08 56° SW
ADEOS II 2.5 09:59:15 10° NNE 10:04:25 57° E 10:06:13 38° SSE
GP-B 4.1 10:02:27 10° NNW 10:06:01 32° WNW 10:06:01 32° WNW
Cosmos 1408 3.7 10:06:11 34° ESE 10:06:41 36° E 10:10:05 10° NNE
STARLINK-79 4.1 10:08:04 43° E 10:08:04 43° E 10:10:58 10° ENE
Cosmos 2221 2.4 10:03:11 10° N 10:07:34 88° E 10:08:05 69° S
Meteor 2-17 Rocket 4.5 10:06:33 47° SW 10:08:12 64° W 10:14:16 10° N
NPP 3.8 10:03:00 10° N 10:08:17 57° WNW 10:09:25 47° WSW
Cosmos 1825 4.0 10:07:17 21° ESE 10:08:29 24° E 10:11:35 10° NE
Cosmos 2154 Rocket 3.9 10:06:42 46° SSW 10:08:41 77° W 10:14:57 10° N
STARLINK-78 4.0 10:09:36 46° E 10:09:36 46° E 10:12:34 10° ENE
USA 215 3.6 10:10:02 40° SW 10:10:18 40° SW 10:16:25 10° WNW
STARLINK-1049 4.3 10:10:42 41° SE 10:10:42 41° SE 10:14:34 10° ENE
STARLINK-57 3.8 10:11:15 52° E 10:11:15 52° E 10:14:19 10° NE
SL-16 R/B 2.6 10:09:41 45° SSW 10:11:14 56° WSW 10:17:18 10° NNW
Cosmos 1842 Rocket 3.5 10:07:12 10° NNW 10:11:37 66° W 10:11:49 65° WSW
IRS-1D 3.5 10:06:30 10° NNE 10:11:46 88° ESE 10:13:13 49° S
STARLINK-49 3.8 10:12:44 52° E 10:12:44 52° E 10:15:49 10° NE
STARLINK-27 3.7 10:14:17 55° ESE 10:14:17 55° ESE 10:17:27 10° NE
Iridium 2 3.9 10:11:07 10° N 10:14:26 56° WNW 10:14:26 56° WNW
Cosmos 2322 Rocket 2.2 10:13:24 48° SW 10:14:55 71° WNW 10:20:32 10° NNE
STARLINK-74 3.6 10:15:51 58° ESE 10:15:51 58° ESE 10:19:04 10° NE
STARLINK-1051 4.1 10:15:27 45° SE 10:15:35 45° SE 10:19:33 10° ENE
In-Cosmos 22 Rocket 4.1 10:15:01 45° SSW 10:16:49 83° W 10:22:21 10° N
STARLINK-39 3.5 10:17:16 61° ESE 10:17:16 61° ESE 10:20:31 10° NE
IRS-1C 4.4 10:11:57 10° NNE 10:17:15 61° ESE 10:19:35 33° S
STARLINK-31 3.4 10:18:46 65° ESE 10:18:46 65° ESE 10:22:04 10° NE
ARIANE 5 R/B 3.3 10:14:42 10° NNE 10:19:29 45° E 10:22:00 25° SSE
STARLINK-69 3.2 10:20:26 76° E 10:20:26 76° E 10:23:50 10° NE
STARLINK-21 3.2 10:21:53 74° ESE 10:21:53 74° ESE 10:25:19 10° NE
STARLINK-45 3.1 10:23:38 87° E 10:23:38 87° E 10:27:12 10° NE
Cosmos 1315 Rocket 2.8 10:20:56 10° NNW 10:24:44 57° W 10:24:44 57° W
STARLINK-70 3.1 10:24:50 87° ESE 10:24:50 87° ESE 10:28:23 10° NE
Cosmos 2058 2.9 10:24:58 57° WSW 10:25:26 62° W 10:29:38 10° N
STARLINK-1028 3.8 10:25:02 53° SSE 10:25:31 57° SE 10:29:36 10° NE
STARLINK-76 3.1 10:26:45 84° S 10:26:49 86° SE 10:30:25 10° NE
AQUA 4.4 10:23:01 10° N 10:27:29 41° WNW 10:28:26 37° WSW
STARLINK-23 3.0 10:28:06 84° SW 10:28:12 89° SE 10:31:47 10° NE
STARLINK-1010 3.7 10:28:24 54° S 10:29:07 67° SE 10:33:20 10° NE
STARLINK-32 3.0 10:29:33 82° WSW 10:29:42 88° NW 10:33:16 10° NE
STARLINK-1021 3.7 10:29:51 54° S 10:30:32 64° SE 10:34:37 10° NE
STARLINK-40 3.0 10:31:18 76° WSW 10:31:32 85° NW 10:35:07 10° NE
STARLINK-44 3.0 10:32:40 73° WSW 10:32:57 82° NW 10:36:31 10° NE
Resurs 1-4 Rocket 3.3 10:29:18 10° N 10:33:43 27° WNW 10:35:11 24° W
STARLINK-37 3.2 10:34:38 62° W 10:35:02 71° NW 10:38:37 10° NE
STARLINK-1019 3.6 10:34:35 52° SSW 10:35:27 72° SE 10:39:34 10° NE
STARLINK-36 3.1 10:35:38 66° W 10:36:01 76° NW 10:39:33 10° NE
Cosmos 2237 4.2 10:36:22 34° SSW 10:38:57 83° WNW 10:44:43 10° NNE
Nadezhda 3 Rocket 4.2 10:33:05 10° NNW 10:39:14 56° W 10:42:28 28° SSW
STARLINK-63 3.3 10:39:12 53° W 10:39:47 65° NW 10:43:20 10° NE
Cosmos 2366 rocket 4.4 10:35:13 16° SSE 10:40:13 60° E 10:46:24 10° NNE
STARLINK-1012 3.5 10:39:23 49° SSW 10:40:26 80° SE 10:44:34 10° NE
STARLINK-35 3.3 10:40:40 53° W 10:41:17 66° NW 10:44:51 10° NE
STARLINK-51 3.4 10:42:15 50° W 10:42:55 63° NW 10:46:29 10° NE
GEOS 3 Rocket 3.5 10:38:45 10° SSE 10:43:53 78° WSW 10:49:09 10° NW
STARLINK-30 3.4 10:43:48 47° W 10:44:33 61° NW 10:48:05 10° NE
Cosmos 1125 Rocket 4.0 10:40:58 10° NW 10:45:44 37° W 10:46:59 32° SW
STARLINK-72 3.5 10:45:21 44° W 10:46:09 58° NW 10:49:41 10° NE
COBE Rocket 4.2 10:42:21 10° SSE 10:47:17 72° ENE 10:52:25 10° N
STARLINK-59 3.7 10:48:30 38° W 10:49:28 51° NW 10:52:57 10° NE
Spot 4 Rocket 4.3 10:44:40 10° NNE 10:49:47 65° ESE 10:53:28 19° S
SL-16 R/B 3.4 10:47:50 22° W 10:50:17 30° WNW 10:55:13 10° N
STARLINK-1026 3.5 10:48:56 40° SW 10:50:22 84° NW 10:54:32 10° NE
STARLINK-56 3.7 10:49:57 38° W 10:50:56 52° NW 10:54:26 10° NE
STARLINK-71 3.9 10:49:39 35° WSW 10:51:06 57° NW 10:55:04 10° NE
STARLINK-73 3.7 10:51:33 36° W 10:52:36 50° NW 10:56:06 10° NE
COSMOS 2428 3.9 10:48:27 11° SSE 10:53:17 36° ESE 10:58:25 10° NE
STARLINK-50 3.7 10:52:12 35° W 10:53:27 54° NW 10:57:09 10° NE
Cosmos 1844 Rocket 3.8 10:48:22 10° N 10:53:44 46° ENE 10:59:03 10° SE
Meteor 1-28 Rocket 3.5 10:51:01 14° SSE 10:54:12 65° ENE 10:57:54 10° N
STARLINK-38 3.8 10:53:05 34° W 10:54:13 48° NW 10:57:41 10° NE
STARLINK-60 3.0 10:51:18 10° NW 10:54:30 76° NE 10:57:40 10° SE
STARLINK-68 4.0 10:53:27 31° W 10:54:41 44° NW 10:58:10 10° NE
STARLINK-1013 3.6 10:53:44 35° WSW 10:55:22 76° NW 10:59:31 10° NE
IRS-P3 4.4 10:50:27 10° N 10:55:37 52° WNW 10:58:20 27° SW
STARLINK-65 3.9 10:54:39 32° W 10:55:50 46° NW 10:59:17 10° NE
STARLINK-53 4.0 10:56:16 29° W 10:57:33 42° NW 11:00:58 10° NE
SL-4 R/B 2.3 10:54:30 10° NW 10:59:18 84° NE 11:03:49 10° SE
Cosmos 1538 Rocket 4.1 10:56:04 21° S 10:59:39 78° ESE 11:05:03 10° NNE
STARLINK-1009 3.7 10:58:30 31° WSW 11:00:19 68° NW 11:04:28 10° NE
STARLINK-1444 2.9 10:58:31 10° NW 11:00:46 54° NE 11:03:10 10° ESE
CZ-2D R/B 3.6 10:56:31 10° NNE 11:00:49 83° ESE 11:03:41 21° S
STARLINK-1452 2.8 10:59:08 10° NW 11:01:24 56° NE 11:03:48 10° ESE
STARLINK-1450 2.7 10:59:58 10° NW 11:02:11 57° NE 11:04:32 10° ESE
USA 229 DEB 4.0 10:55:03 10° NW 11:02:12 53° WSW 11:09:35 10° S
USA 229 4.0 10:55:09 10° NW 11:02:18 53° WSW 11:09:42 10° S
STARLINK-1392 2.7 11:00:11 10° NW 11:02:24 57° NE 11:04:44 10° ESE
CZ-2D R/B 4.0 10:59:31 10° NNW 11:02:24 15° WNW 11:04:27 12° W
STARLINK-1415 2.7 11:00:11 10° NW 11:02:24 57° NE 11:04:44 10° ESE
STARLINK-1399 2.7 11:00:12 10° NW 11:02:25 57° NE 11:04:45 10° ESE
STARLINK-1394 2.7 11:00:13 10° NW 11:02:25 57° NE 11:04:46 10° ESE
STARLINK-1395 2.7 11:00:13 10° NW 11:02:26 57° NE 11:04:47 10° ESE
STARLINK-1401 2.7 11:00:14 10° NW 11:02:27 57° NE 11:04:47 10° ESE
STARLINK-1393 2.7 11:00:14 10° NW 11:02:27 58° NE 11:04:47 10° ESE
STARLINK-1396 2.7 11:00:14 10° NW 11:02:27 58° NE 11:04:47 10° ESE
STARLINK-1397 2.7 11:00:14 10° NW 11:02:27 58° NE 11:04:48 10° ESE
STARLINK-1453 2.7 11:00:14 10° NW 11:02:27 58° NE 11:04:48 10° ESE
STARLINK-1404 2.7 11:00:16 10° NW 11:02:29 58° NE 11:04:49 10° ESE
STARLINK-1417 2.7 11:00:17 10° NW 11:02:30 58° NE 11:04:50 10° ESE
STARLINK-1402 2.7 11:00:17 10° NW 11:02:30 58° NE 11:04:50 10° ESE
STARLINK-1413 2.7 11:00:18 10° NW 11:02:31 58° NE 11:04:51 10° ESE
STARLINK-1406 2.7 11:00:19 10° NW 11:02:31 58° NE 11:04:52 10° ESE
STARLINK-1440 2.7 11:00:20 10° NW 11:02:33 58° NE 11:04:54 10° ESE
STARLINK-1445 2.7 11:00:21 10° NW 11:02:34 58° NE 11:04:55 10° ESE
STARLINK-1454 2.7 11:00:22 10° NW 11:02:35 58° NE 11:04:56 10° ESE
STARLINK-1443 2.7 11:00:22 10° NW 11:02:35 58° NE 11:04:56 10° ESE
STARLINK-1457 2.7 11:00:23 10° NW 11:02:36 58° NE 11:04:57 10° ESE
STARLINK-1456 2.7 11:00:24 10° NW 11:02:37 58° NE 11:04:58 10° ESE
STARLINK-1414 2.7 11:00:22 10° NW 11:02:37 58° NE 11:05:00 10° ESE
STARLINK-1451 2.7 11:00:24 10° NW 11:02:37 58° NE 11:04:58 10° ESE
STARLINK-1442 2.6 11:00:26 10° NW 11:02:38 58° NE 11:05:00 10° ESE
STARLINK-1416 2.7 11:00:24 10° NW 11:02:39 58° NE 11:05:02 10° ESE
STARLINK-1408 2.7 11:00:24 10° NW 11:02:39 58° NE 11:05:03 10° ESE
STARLINK-1405 2.6 11:00:28 10° NW 11:02:41 58° NE 11:05:01 10° ESE
STARLINK-1421 2.6 11:00:29 10° NW 11:02:41 58° NE 11:05:02 10° ESE
STARLINK-1410 2.6 11:00:29 10° NW 11:02:42 58° NE 11:05:02 10° ESE
STARLINK-1400 2.6 11:00:29 10° NW 11:02:43 58° NE 11:05:03 10° ESE
STARLINK-1407 2.6 11:00:30 10° NW 11:02:43 58° NE 11:05:04 10° ESE
STARLINK-1439 2.6 11:00:30 10° NW 11:02:43 58° NE 11:05:04 10° ESE
STARLINK-1436 (VISORSAT) 2.7 11:00:29 10° NW 11:02:44 59° NE 11:05:07 10° ESE
STARLINK-1409 2.6 11:00:31 10° NW 11:02:44 58° NE 11:05:05 10° ESE
STARLINK-1419 2.7 11:00:29 10° NW 11:02:44 58° NE 11:05:07 10° ESE
STARLINK-1351 2.6 11:00:32 10° NW 11:02:45 58° NE 11:05:06 10° ESE
STARLINK-1370 2.6 11:00:32 10° NW 11:02:45 58° NE 11:05:06 10° ESE
STARLINK-1418 2.6 11:00:33 10° NW 11:02:45 58° NE 11:05:06 10° ESE
STARLINK-1434 2.6 11:00:32 10° NW 11:02:46 58° NE 11:05:06 10° ESE
STARLINK-1398 2.7 11:00:30 10° NW 11:02:46 59° NE 11:05:09 10° ESE
STARLINK-1403 2.6 11:00:33 10° NW 11:02:47 58° NE 11:05:07 10° ESE
STARLINK-1433 2.6 11:00:35 10° NW 11:02:48 58° NE 11:05:09 10° ESE
STARLINK-1422 2.7 11:00:33 10° NW 11:02:48 59° NE 11:05:12 10° ESE
STARLINK-1411 2.6 11:00:36 10° NW 11:02:49 58° NE 11:05:10 10° ESE
STARLINK-1420 2.7 11:00:34 10° NW 11:02:50 59° NE 11:05:13 10° ESE
STARLINK-1438 2.6 11:00:37 10° NW 11:02:50 58° NE 11:05:11 10° ESE
STARLINK-1460 2.7 11:00:36 10° NW 11:02:52 59° NE 11:05:15 10° ESE
STARLINK-1458 2.7 11:00:40 10° NW 11:02:56 59° NE 11:05:19 10° ESE
STARLINK-1423 2.7 11:00:42 10° NW 11:02:58 59° NE 11:05:21 10° ESE
STARLINK-1446 2.7 11:00:44 10° NW 11:02:59 59° NE 11:05:24 10° ESE
STARLINK-1437 2.7 11:00:45 10° NW 11:03:01 59° NE 11:05:24 10° SE
STARLINK-1447 2.7 11:00:48 10° NW 11:03:04 59° NE 11:05:27 10° SE
STARLINK-1455 2.7 11:00:48 10° NW 11:03:04 59° NE 11:05:28 10° SE
STARLINK-1441 2.7 11:00:49 10° NW 11:03:05 59° NE 11:05:29 10° SE
STARLINK-1448 2.7 11:00:53 10° NW 11:03:09 60° NE 11:05:33 10° SE
STARLINK-1449 2.7 11:00:54 10° NW 11:03:10 60° NE 11:05:34 10° SE
STARLINK-1412 2.6 11:01:03 10° NW 11:03:19 60° NE 11:05:43 10° SE
NOSS 3-1 (C) 4.4 10:55:59 10° NW 11:03:37 50° WSW 11:12:02 10° S
STARLINK-1015 3.8 11:03:17 28° WSW 11:05:19 62° NW 11:09:26 10° NE
Cosmos 1606 3.7 11:03:38 10° N 11:07:17 45° E 11:10:56 10° SSE
ERS-2 2.1 11:03:41 10° SSE 11:07:20 81° ENE 11:11:01 10° N
Cosmos 1892 4.4 11:06:57 18° W 11:07:29 18° WNW 11:10:09 10° NNW
SL-08 R/B 3.3 11:04:17 17° S 11:07:44 57° W 11:12:17 10° NNW
Cosmos 864 Rocket 4.4 11:03:30 15° S 11:08:36 83° W 11:14:46 10° N
H-2A R/B 2.4 11:05:33 10° SSE 11:09:54 69° ENE 11:14:22 10° N
Cosmos 1766 Rocket 3.4 11:07:18 20° S 11:10:16 82° W 11:14:37 10° N
STARLINK-1016 4.0 11:08:03 25° WSW 11:10:17 55° NW 11:14:22 10° NE
Okean 3 Rocket 3.6 11:08:08 22° SSW 11:11:02 68° W 11:15:34 10° N
Cosmos 1151 Rocket 3.9 11:07:06 10° N 11:11:24 51° E 11:15:39 10° SSE
NOSS 3-1 (A) 4.2 11:03:39 10° NW 11:11:31 67° WSW 11:20:17 10° SSE
CZ-2C R/B 2.9 11:09:00 10° NNE 11:12:47 69° ESE 11:15:55 15° S
Cosmos 773 Rocket 4.4 11:09:51 23° SW 11:12:56 50° WNW 11:18:05 10° N
Cosmos 2360 Rocket 2.7 11:09:47 22° SW 11:13:06 44° WNW 11:18:29 10° N
Cosmos 2151 3.4 11:11:12 24° SW 11:13:23 46° W 11:17:33 10° N
STARLINK-1008 4.1 11:12:51 22° WSW 11:15:18 50° NW 11:19:20 10° NE
STARLINK-1014 4.3 11:17:40 19° WSW 11:20:17 45° NW 11:24:16 10° NE
CZ-3 R/B 4.2 10:46:20 15° WSW 11:21:31 55° S 11:31:59 10° E
Lacrosse 5 rocket 1.9 11:21:10 16° SSW 11:24:08 47° SE 11:27:54 10° NE
Cosmos 2333 Rocket 2.2 11:19:23 14° SSW 11:24:18 83° ESE 11:30:00 10° NNE
STARLINK-1025 4.4 11:22:25 17° WSW 11:25:17 42° NW 11:29:14 10° NE
STARLINK-29 3.2 11:23:41 10° NW 11:26:51 70° NE 11:30:01 10° SE
Shenzhou-11 Module 4.0 11:26:52 10° NW 11:28:51 21° N 11:30:50 10° ENE
Cosmos 2322 3.9 11:25:56 16° SW 11:30:27 60° WNW 11:36:08 10° NNE
STARLINK-1037 4.4 11:27:46 14° SSW 11:30:56 42° SE 11:34:52 10° ENE
Cosmos 2219 Rocket 2.2 11:25:54 12° SSW 11:31:02 88° ESE 11:36:39 10° NNE
STARLINK-1011 4.4 11:29:18 14° SSW 11:32:33 43° SE 11:36:30 10° ENE
Cosmos 1633 3.7 11:29:54 10° SSE 11:33:17 42° E 11:36:43 10° NNE
Cosmos 2218 Rocket 4.5 11:32:00 13° SSW 11:37:22 44° WNW 11:43:28 10° N
STARLINK-1036 4.2 11:34:06 13° SSW 11:37:32 49° SE 11:41:32 10° ENE
Cosmos 2333 4.5 11:35:10 14° SW 11:39:51 52° WNW 11:45:21 10° NNE
CZ-2C R/B 3.5 11:36:11 10° NNE 11:41:12 48° E 11:46:09 10° S
Cosmos 2263 Rocket 4.0 11:40:35 10° W 11:42:02 11° W 11:43:07 10° WSW
STARLINK-1044 4.1 11:38:53 13° SSW 11:42:30 55° SE 11:46:33 10° NE
CZ-4B R/B 3.2 11:40:14 10° SE 11:43:00 31° ENE 11:45:49 10° N
Cosmos 1743 Rocket 4.0 11:38:39 10° S 11:43:00 65° E 11:47:21 10° NNE
ATLAS 5 CENTAUR R/B 2.2 11:39:31 10° S 11:43:23 47° ESE 11:47:32 10° NE
ADEOS II 3.9 11:40:22 10° NNW 11:43:36 17° WNW 11:46:50 10° WSW
Cosmos 1825 4.0 11:42:06 12° WSW 11:43:57 17° WNW 11:46:26 10° NNW
USA 32 4.4 11:40:10 10° S 11:45:21 69° E 11:50:34 10° N
Cosmos 1346 Rocket 3.8 11:43:27 10° S 11:47:17 47° E 11:51:07 10° NNE
STARLINK-1047 3.9 11:43:38 12° SSW 11:47:25 61° SE 11:51:31 10° NE
IDEFIX/ARIANE 42P 3.0 11:43:44 10° N 11:48:46 47° WNW 11:53:45 10° SW
COSMOS 2441 4.4 11:46:54 10° N 11:51:48 74° WNW 11:56:40 10° SSW
